[[{"header":{"parameterUnit":"m.s-1","parameterCategory":1,"la1":30.2991,"la2":30.254,"lo1":-89.0895,"lo2":-89.0444,"dy":0.0017,"dx":0.0017,"nx":28,"ny":28,"refTime":"2024-04-07T03:00:00:Z","depth":0,"parameterNumber":2,"parameterNumberName":"U-component_of_WINDS"},"data":[0,0,0,0,0,0,0,0,0,0,0,0,0,0,0,0,0,0,0,0,0,0,0,0,0,0,0,0,0,0,0,0,0,0,0,0,0,0,0,0,0,0,0,0,0,0,0,0,0,0,0,0,0,0,0,0,0,0,-3.5917,-3.5918,0,-3.6033,-3.6034,-3.6035,-3.6036,-3.6035,-3.6033,-3.6032,-3.615,-3.6154,-3.6159,0,0,0,0,0,0,0,0,0,0,0,0,0,-3.5697,-3.5701,-3.5917,-3.5918,-3.592,-3.6033,-3.6034,-3.6036,-3.6037,-3.6035,-3.6033,-3.6031,-3.6148,-3.6154,-3.6159,0,0,0,0,0,0,0,0,0,0,0,0,0,-3.5801,-3.5702,-3.5917,-3.5934,-3.5937,-3.6032,-3.6034,-3.6036,-3.6037,-3.6035,-3.6033,-3.603,-3.6147,-3.6153,-3.616,-3.6246,0,0,-3.6181,-3.6184,0,0,0,0,0,0,0,0,-3.5795,-3.5809,-3.593,-3.5933,-3.5936,-3.6018,-3.6,-3.6106,-3.6038,-3.5999,-3.6032,-3.6029,-3.6108,-3.6118,-3.6144,-3.6251,-3.6257,-3.6181,-3.6185,-3.6188,-3.619,0,0,0,0,0,0,0,-3.5788,-3.5804,-3.5963,-3.5932,-3.5936,-3.5936,-3.5948,-3.602,-3.6064,-3.6002,-3.6002,-3.6016,-3.6109,-3.6138,-3.6147,-3.6258,-3.6181,-3.6187,-3.6191,-3.6194,-3.6442,-3.6444,0,0,0,0,0,0,-3.5777,-3.5798,-3.5959,-3.5966,-3.5859,-3.5942,-3.5955,-3.5994,-3.6063,-3.6072,-3.6018,-3.6016,-3.6127,-3.6139,-3.6151,-3.6255,-3.6188,-3.6195,-3.6198,-3.6439,-3.6442,-3.6445,0,0,0,0,0,0,-3.5772,-3.5791,-3.5954,-3.5882,-3.5903,-3.5948,-3.5991,-3.5997,-3.6026,-3.6075,-3.6083,-3.6039,-3.6126,-3.6142,-3.6222,-3.6259,-3.6198,-3.6204,-3.6436,-3.644,-3.6444,-3.6465,0,0,0,0,0,0,-3.5766,-3.579,-3.5822,-3.5883,-3.5907,-3.6024,-3.5993,-3.6001,-3.6038,-3.6036,-3.6097,-3.6105,-3.6125,-3.6212,-3.6229,-3.6267,-3.6209,-3.6433,-3.6438,-3.6443,-3.6461,-3.6469,-3.6476,0,0,0,0,0,-3.5758,-3.5824,-3.5824,-3.5844,-3.5949,-3.6026,-3.6039,-3.6061,-3.6041,-3.6074,-3.6106,-3.6103,-3.6253,-3.622,-3.6239,-3.628,-3.6431,-3.6437,-3.6442,-3.6458,-3.6467,-3.6475,0,0,0,0,0,0,-3.5766,-3.5832,-3.5833,-3.592,-3.5967,-3.6026,-3.6068,-3.6071,-3.6124,-3.612,-3.6146,-3.6159,-3.624,-3.6269,-3.6231,-3.6367,-3.634,-3.6349,-3.6345,-3.6354,-3.6362,-3.6351,-3.6215,0,0,0,0,0,-3.5778,-3.5835,-3.589,-3.5961,-3.5985,-3.6023,-3.6057,-3.607,-3.612,-3.6139,-3.6177,-3.6226,-3.6284,-3.6321,-3.6377,-3.6466,-3.6479,-3.6504,-3.6511,-3.6517,-3.6524,-3.6573,-3.6584,-3.6464,-3.6464,-3.6464,0,0,-3.5803,-3.5846,-3.588,-3.5964,-3.6002,-3.606,-3.6039,-3.6102,-3.6145,-3.6149,-3.6227,-3.6257,-3.6313,-3.6398,-3.6437,-3.6424,-3.6561,-3.6524,-3.6529,-3.6533,-3.658,-3.6591,-3.6601,-3.6468,-3.6467,-3.6466,0,0,-3.5878,-3.5917,-3.598,-3.6019,-3.6077,-3.6102,-3.6118,-3.6176,-3.6196,-3.6275,-3.6279,-3.6332,-3.6431,-3.647,-3.6503,-3.6595,-3.6594,-3.6613,-3.665,-3.6697,-3.6706,-3.6715,-3.6746,-3.6757,-3.6621,-3.6621,-3.6621,0,-3.5901,-3.5989,-3.6013,-3.6075,-3.6111,-3.6119,-3.6183,-3.622,-3.6293,-3.6318,-3.6304,-3.6429,-3.6467,-3.6561,-3.6583,-3.661,-3.6628,-3.6604,-3.6703,-3.6712,-3.672,-3.675,-3.6762,-3.6623,-3.6622,-3.6622,-3.6622,0,-3.6014,-3.6075,-3.6119,-3.619,-3.6232,-3.6295,-3.6329,-3.6368,-3.6379,-3.6405,-3.6485,-3.6532,-3.6597,-3.6621,-3.6632,-3.6717,-3.6707,-3.6698,-3.667,-3.6733,-3.6761,-3.6773,-3.6625,-3.6624,-3.6624,-3.6623,0,0,-3.6094,-3.6178,-3.6194,-3.6226,-3.6292,-3.6339,-3.6403,-3.6467,-3.65,-3.6552,-3.6605,-3.669,-3.6682,-3.6719,-3.6735,-3.6777,-3.6844,-3.6762,-3.6764,-3.6774,-3.6939,-3.6944,-3.6956,-3.6846,-3.6848,-3.685,-3.6934,0,-3.6174,-3.6287,-3.6311,-3.6408,-3.6464,-3.6474,-3.6529,-3.6575,-3.6603,-3.6654,-3.6685,-3.6744,-3.673,-3.6752,-3.6794,-3.6827,-3.6877,-3.6822,-3.6894,-3.6896,-3.6877,-3.6972,-3.6977,-3.7053,-3.6945,-3.6947,-3.6949,0,-3.6281,-3.6335,-3.6438,-3.6496,-3.652,-3.657,-3.6631,-3.6681,-3.6734,-3.6751,-3.6793,-3.6805,-3.6871,-3.6843,-3.6935,-3.6896,-3.6928,-3.6949,-3.6953,-3.6958,-3.6924,-3.6977,-3.7079,-3.7089,-3.6967,-3.6965,-3.6964,0,-3.6326,-3.6425,-3.6499,-3.6526,-3.6597,-3.6631,-3.6662,-3.6713,-3.675,-3.6804,-3.6828,-3.689,-3.6922,-3.697,-3.6997,-3.6974,-3.7087,-3.706,-3.7101,-3.7101,-3.7122,-3.7119,-3.7227,-3.7147,-3.7147,-3.7147,-3.7146,0,-3.6411,-3.6473,-3.652,-3.6565,-3.6635,-3.6663,-3.6732,-3.6763,-3.6808,-3.686,-3.6873,-3.6921,-3.6956,-3.7009,-3.7031,-3.7103,-3.7118,-3.7133,-3.7138,-3.713,-3.7128,-3.7149,-3.7143,-3.715,-3.7149,-3.7149,-3.7148,0,-3.6472,-3.6506,-3.6587,-3.6647,-3.6664,-3.6713,-3.6765,-3.6809,-3.6838,-3.6902,-3.6919,-3.6964,-3.7027,-3.706,-3.7139,-3.7154,-3.7235,-3.7238,-3.7216,-3.7217,-3.7256,-3.7251,-3.7378,-3.7396,-3.7306,-3.7307,-3.7308,0,-3.6522,-3.657,-3.6636,-3.6671,-3.6703,-3.676,-3.6798,-3.6829,-3.6868,-3.6932,-3.6969,-3.7033,-3.7085,-3.7186,-3.7225,-3.7286,-3.7289,-3.733,-3.7298,-3.7289,-3.7287,-3.7282,-3.7286,-3.7334,-3.7335,-3.7335,-3.7336,0,-3.6607,-3.6622,-3.6676,-3.6737,-3.6782,-3.6832,-3.688,-3.6909,-3.6947,-3.6991,-3.7055,-3.7096,-3.7177,-3.724,-3.7304,-3.7336,-3.7342,-3.7346,-3.7359,-3.735,-3.7334,-3.7341,-3.7228,-3.7342,-3.7342,-3.7341,-3.7341,-3.7341,-3.6663,-3.6706,-3.6759,-3.6819,-3.6859,-3.6904,-3.6949,-3.6983,-3.7038,-3.7105,-3.7121,-3.7189,-3.7242,-3.7328,-3.7362,-3.7416,-3.7408,-3.7426,-3.743,-3.7433,-3.7434,-3.7329,-3.7428,-3.7428,-3.7428,-3.7428,-3.7428,0,-3.6747,-3.6782,-3.6837,-3.6905,-3.6952,-3.6955,-3.701,-3.7049,-3.7109,-3.7157,-3.7209,-3.7284,-3.7345,-3.739,-3.7453,-3.7487,-3.7492,-3.7503,-3.7499,-3.7506,-3.7439,-3.7421,-3.7498,-3.7498,-3.7498,-3.7498,-3.7498,-3.7498,-3.6796,-3.6867,-3.6889,-3.6981,-3.7016,-3.7082,-3.7113,-3.7155,-3.7194,-3.7276,-3.7328,-3.7357,-3.7404,-3.7471,-3.7527,-3.7539,-3.7561,-3.7571,-3.7582,-3.7518,-3.7511,-3.7503,-3.7486,-3.7576,-3.7576,-3.7645,-3.7645,-3.7646]},{"header":{"parameterUnit":"m.s-1","parameterCategory":1,"la1":30.2991,"la2":30.254,"lo1":-89.0895,"lo2":-89.0444,"dy":0.0017,"dx":0.0017,"nx":28,"ny":28,"refTime":"2024-04-07T03:00:00:Z","depth":0,"parameterNumber":3,"parameterNumberName":"V-component_of_WINDS"},"data":[0,0,0,0,0,0,0,0,0,0,0,0,0,0,0,0,0,0,0,0,0,0,0,0,0,0,0,0,0,0,0,0,0,0,0,0,0,0,0,0,0,0,0,0,0,0,0,0,0,0,0,0,0,0,0,0,0,0,3.7473,3.7472,0,3.7462,3.7462,3.7462,3.7374,3.7372,3.7369,3.7367,3.7356,3.7358,3.7359,0,0,0,0,0,0,0,0,0,0,0,0,0,3.7417,3.7418,3.7473,3.7472,3.7472,3.7462,3.7462,3.7462,3.7374,3.7372,3.7369,3.7366,3.7355,3.7357,3.7359,0,0,0,0,0,0,0,0,0,0,0,0,0,3.7427,3.7419,3.7473,3.7427,3.7423,3.7462,3.7462,3.7462,3.7375,3.7371,3.7368,3.7365,3.7355,3.7357,3.736,3.7441,0,0,3.7368,3.7369,0,0,0,0,0,0,0,0,3.7427,3.7429,3.7434,3.7431,3.7426,3.7416,3.7438,3.7455,3.7376,3.7393,3.7367,3.7364,3.7379,3.7379,3.7384,3.744,3.744,3.7368,3.7369,3.7371,3.7371,0,0,0,0,0,0,0,3.7426,3.7429,3.7468,3.7434,3.7429,3.7408,3.7406,3.7441,3.7404,3.7391,3.7385,3.7385,3.7376,3.7382,3.7383,3.744,3.7368,3.737,3.7372,3.7373,3.7563,3.7566,0,0,0,0,0,0,3.7432,3.7429,3.7469,3.7468,3.7418,3.7411,3.7409,3.7422,3.7404,3.7398,3.7388,3.7381,3.7379,3.738,3.7382,3.7476,3.7371,3.7373,3.7374,3.7559,3.7564,3.7567,0,0,0,0,0,0,3.7431,3.7436,3.7469,3.7447,3.745,3.7416,3.7432,3.7424,3.743,3.7401,3.7394,3.7401,3.7376,3.7379,3.7427,3.7474,3.7374,3.7376,3.7555,3.7561,3.7565,3.7664,0,0,0,0,0,0,3.743,3.7436,3.7467,3.7448,3.7451,3.7514,3.7435,3.7426,3.7435,3.7426,3.7411,3.7406,3.7374,3.7424,3.743,3.7476,3.7378,3.7551,3.7558,3.7564,3.7656,3.7672,3.7685,0,0,0,0,0,3.7428,3.7494,3.7469,3.7474,3.7488,3.7517,3.7518,3.7481,3.7439,3.7469,3.7451,3.7406,3.7469,3.743,3.7435,3.7483,3.7548,3.7556,3.7563,3.765,3.7669,3.7685,0,0,0,0,0,0,3.7518,3.7491,3.7462,3.7524,3.7524,3.7502,3.7539,3.7502,3.7513,3.7504,3.7457,3.7455,3.751,3.7502,3.7459,3.7561,3.7501,3.751,3.7564,3.7582,3.7596,3.7596,3.7381,0,0,0,0,0,3.7546,3.7571,3.7546,3.7604,3.7605,3.7573,3.7584,3.7555,3.7552,3.7551,3.7536,3.7535,3.7555,3.7568,3.7584,3.7656,3.7651,3.7691,3.7706,3.7718,3.7726,3.7763,3.778,3.7593,3.7593,3.7593,0,0,3.7601,3.759,3.7609,3.7622,3.7618,3.7645,3.7573,3.7605,3.7625,3.7556,3.76,3.759,3.7586,3.7646,3.7672,3.7641,3.7777,3.7728,3.7738,3.7739,3.7773,3.7791,3.7806,3.7599,3.7598,3.7597,0,0,3.7718,3.7712,3.7759,3.7757,3.7753,3.7731,3.7743,3.7727,3.7718,3.7762,3.7711,3.7735,3.7769,3.7768,3.7772,3.7891,3.7851,3.7898,3.7973,3.801,3.8024,3.8037,3.8079,3.8094,3.7907,3.7907,3.7907,0,3.7787,3.7827,3.7788,3.7824,3.7831,3.7772,3.7819,3.7819,3.782,3.7827,3.7792,3.7835,3.7828,3.7887,3.7916,3.7922,3.7933,3.7898,3.8025,3.8038,3.8049,3.8088,3.8104,3.7913,3.7912,3.7911,3.7911,0,3.7913,3.7942,3.7981,3.7984,3.7996,3.8038,3.8005,3.8022,3.7993,3.7975,3.8022,3.8012,3.8025,3.8038,3.801,3.8093,3.8074,3.8034,3.7971,3.8073,3.8109,3.8124,3.7921,3.7919,3.7917,3.7916,0,0,3.8082,3.8066,3.808,3.8081,3.8073,3.8095,3.8135,3.8148,3.8163,3.8167,3.8199,3.823,3.8193,3.8198,3.817,3.8203,3.8297,3.8158,3.8157,3.8183,3.8388,3.8417,3.8435,3.8271,3.8274,3.8276,3.8388,0,3.8193,3.8259,3.8226,3.8297,3.8323,3.8268,3.8303,3.8302,3.8287,3.8307,3.8291,3.8314,3.8263,3.8266,3.8296,3.8279,3.8337,3.8271,3.8299,3.8301,3.83,3.8454,3.8485,3.8591,3.8402,3.8404,3.8406,0,3.833,3.8341,3.8414,3.8402,3.8412,3.8443,3.8454,3.8474,3.8472,3.8459,3.8466,3.8431,3.8469,3.841,3.8462,3.8418,3.8428,3.8422,3.8425,3.8424,3.8358,3.8456,3.8624,3.8639,3.8428,3.8426,3.8424,0,3.8445,3.8478,3.8525,3.8528,3.8516,3.854,3.8536,3.8531,3.8542,3.8552,3.8558,3.8572,3.8579,3.8591,3.8561,3.8521,3.8617,3.8555,3.8607,3.8608,3.8627,3.8626,3.8797,3.8638,3.8637,3.8637,3.8637,0,3.8571,3.8617,3.8577,3.8606,3.8658,3.862,3.8672,3.8662,3.8659,3.8685,3.864,3.8665,3.8625,3.8647,3.8624,3.867,3.8674,3.8664,3.8657,3.8667,3.8669,3.8672,3.8663,3.8641,3.864,3.8639,3.8639,0,3.8706,3.8681,3.873,3.8716,3.8713,3.8751,3.8739,3.8765,3.8749,3.8783,3.8789,3.8762,3.8786,3.8758,3.8779,3.8764,3.8826,3.8809,3.8827,3.8821,3.8874,3.8869,3.9052,3.9074,3.8902,3.8903,3.8905,0,3.8787,3.8822,3.8812,3.8827,3.8826,3.8851,3.8862,3.8827,3.8841,3.8843,3.8869,3.889,3.8903,3.8944,3.8927,3.8943,3.8925,3.8988,3.8927,3.8936,3.8924,3.8922,3.8925,3.9,3.9002,3.9004,3.9005,0,3.8933,3.892,3.8938,3.8953,3.8968,3.8977,3.8983,3.8998,3.8962,3.898,3.9004,3.9016,3.9038,3.9059,3.9071,3.9066,3.903,3.9025,3.9037,3.9047,3.9056,3.9051,3.8859,3.902,3.9019,3.9017,3.9017,3.9016,3.9043,3.9071,3.9069,3.9091,3.9093,3.91,3.9125,3.9112,3.9132,3.9148,3.9127,3.9157,3.9155,3.9168,3.9168,3.9191,3.9164,3.9182,3.9187,3.9191,3.9199,3.9054,3.9193,3.9193,3.9192,3.9192,3.9192,0,3.9185,3.9182,3.9203,3.9214,3.9232,3.9198,3.9203,3.922,3.9248,3.925,3.9265,3.9294,3.9314,3.9299,3.9316,3.9338,3.9322,3.9343,3.934,3.934,3.9223,3.921,3.9356,3.9356,3.9356,3.9356,3.9356,3.9356,3.9261,3.9308,3.9295,3.9343,3.9339,3.9368,3.9375,3.9381,3.9383,3.9417,3.9434,3.9425,3.942,3.9437,3.9454,3.9449,3.9457,3.9485,3.9474,3.9364,3.9348,3.9333,3.932,3.9487,3.9488,3.9589,3.959,3.9591]}]]